CSS (WENTIAN)

Last updated on Thu Nov 21 2024 00:02:09 GMT+0000 (Coordinated Universal Time)

1 53239U 22085A 24325.35088087 .00036371 00000+0 45831-3 0 9997 2 53239 41.4657 210.8559 0002795 333.6468 26.4228 15.58884123124395
UTC large
Height (km)
Speed (km/s)
/
Latitude / Longitude
Inclination (degrees)
Orbital Period (minutes)
Azimuth
Elevation
Range (km)
Doppler Factor

Next 0 passes for location: London (51.5072 / 0.1276)

Sorry there are no passes over London.